Regional Weather Roundup
Issued by NWS

Home | Current Version | Previous Version | Text Only | Print | Product List | Glossary On
Versions: 1 2 3 4 5 6 7 8 9 10 11 12 13 14 15 16 17 18 19 20 21 22 23 24 25 26 27
000
ASCA42 TJSJ 260710
RWRPR
PUERTO RICO/U.S. VIRGIN ISLANDS HOURLY WEATHER ROUNDUP
NATIONAL WEATHER SERVICE SAN JUAN PR
300 AM AST TUE SEP 26 2017

PRZ001>002-007>008-010-260800-
PUERTO RICO

CITY           SKY/WX    TMP DP  RH WIND       PRES   REMARKS
SAN JUAN LMM   PTCLDY    81  81 100 SE3       29.90F HX  91
$$

VIZ001>002-260800-
U.S. VIRGIN ISLANDS

CITY           SKY/WX    TMP DP  RH WIND       PRES   REMARKS
$$

HOURLY WEATHER ROUNDUP FOR THE NEWS MEDIA

CITY           SKY/WX    TMP DP  RH WIND       PRES   REMARKS
ORLANDO        CLEAR     77  72  84 W3        29.88F
NEW YORK       FOG       68  67  96 SE6       30.05F VSB 1
NEWARK         CLOUDY    69  67  93 SE6       30.04F
CHICAGO        PTCLDY    73  57  57 S5        29.93S
HARTFORD       CLOUDY    65  65 100 CALM      30.03F
BOSTON         FOG       64  64 100 CALM      30.05F VSB 1/4
DALLAS         MOCLDY    81  67  62 S10       29.89R
PHILADELPHIA   MOCLDY    67  64  90 NE3       30.02F
LOS ANGELES    PTCLDY    67  57  70 E3        29.80S
WASHINGTON DC  PTCLDY    68  66  93 CALM      30.01S



USA.gov is the U.S. government's official web portal to all federal, state and local government web resources and services.